Location: Arbon
(43.0005°N, 0.7472°E)
Time: 11:15:19
(UTC+00:00)

Geosat - Pass Details

Date: 22 April 2026
Orbit: 758 x 760 km, 108.0° (Epoch: 20 May)

Event Time Altitude Azimuth Distance (km) Brightness Sun altitude
Rises 20:55:02 0° 24° (NNE) 3,228 7.5 -20.9°
Reaches altitude 10° 20:57:19 10° 22° (NNE) 2,299 6.7 -21.2°
Maximum altitude 21:02:18 70° 300° (WNW) 807 4.2 -21.9°
Drops below altitude 10° 21:07:15 10° 217° (SW) 2,284 6.4 -22.6°
Sets 21:09:31 0° 215° (SW) 3,205 7.1 -22.8°
